Location: Chrząstowo
(52.0654°N, 17.1290°E)
Time: 23:29:24
(UTC+01:00)

Envisat - Pass Details

Date: 18 December 2019
Orbit: 764 x 766 km, 98.1° (Epoch: 19 January)

Event Time Altitude Azimuth Distance (km) Brightness Sun altitude
Rises 05:40:32 0° 23° (NNE) 3,246 6.4 -19.3°
Reaches altitude 10° 05:43:17 10° 37° (NE) 2,314 5.8 -18.9°
Maximum altitude 05:47:22 24° 91° (E) 1,560 5.4 -18.3°
Drops below altitude 10° 05:51:25 10° 144° (SE) 2,299 6.2 -17.7°
Sets 05:54:09 0° 158° (SSE) 3,220 6.8 -17.3°
